M I D A S
Marine Information and Data Acquisition System
Tripno 1073 of the Zeeleeuw from 2006-04-20 07:26:10 to 2006-04-20 11:05:24
Back to CruiseResearch ActivitiesStationsMapUnderway DataData graphs

EquipmentUnitsComments
TimeDGPSUTC
LatitudeDGPSDM.mWGS84
LongitudeDGPSDM.mWGS84
SpeedMeteo Stationm/sRelative wind speed
DirectionMeteo StationdegRelative wind direction
TemperatureMeteo Stationdeg CelciusAir temperature
PressureMeteo StationPaAtmospheric pressure
HumidityMeteo Station%Relative humidity
Missing or incorrect values are displayed as -999
Metereological data collected by the RV Zeeleeuw from 2006-04-20 07:25:49 to 2006-04-20 11:23:34
Time Latitude Longitude Speed Direction Temperature Pressure Humidity
2006-04-20 07:26 51°13.616 2°56.032 -999 122 9.9 101470 73
2006-04-20 07:27 51°13.641 2°55.932 -999 124 10 101470 73
2006-04-20 07:28 51°13.686 2°55.825 -999 148 10 101480 73
2006-04-20 07:29 51°13.717 2°55.739 -999 144 10.1 101470 72
2006-04-20 07:30 51°13.728 2°55.717 -999 165 10.1 101480 72
2006-04-20 07:31 51°13.724 2°55.709 -999 178 10.2 101470 71
2006-04-20 07:32 51°13.748 2°55.695 -999 253 10.2 101480 71
2006-04-20 07:33 51°13.816 2°55.635 -999 278 10.3 101470 71
2006-04-20 07:34 51°13.887 2°55.579 -999 327 10.4 101470 71
2006-04-20 07:35 51°13.982 2°55.515 -999 318 10.5 101480 71
2006-04-20 07:36 51°14.105 2°55.431 -999 308 10.6 101480 70
2006-04-20 07:37 51°14.232 2°55.305 -999 347 10.6 101470 70
2006-04-20 07:38 51°14.336 2°55.117 -999 330 10.7 101470 69
2006-04-20 07:39 51°14.454 2°54.947 -999 307 10.7 101470 70
2006-04-20 07:40 51°14.594 2°54.813 -999 312 10.7 101470 71
2006-04-20 07:41 51°14.763 2°54.635 -999 323 10.7 101460 71
2006-04-20 07:42 51°14.956 2°54.46 -999 327 10.6 101470 71
2006-04-20 07:43 51°15.144 2°54.278 -999 323 10.6 101460 72
2006-04-20 07:44 51°15.339 2°54.105 -999 317 10.5 101470 73
2006-04-20 07:45 51°15.53 2°53.932 -999 43 10.4 101470 74
2006-04-20 07:46 51°15.721 2°53.767 -999 321 10.4 101470 74
2006-04-20 07:47 51°15.915 2°53.604 -999 317 10.3 101460 75
2006-04-20 07:48 51°16.106 2°53.444 -999 321 10.3 101460 75
2006-04-20 07:49 51°16.298 2°53.278 -999 323 10.2 101470 76
2006-04-20 07:50 51°16.492 2°53.115 -999 325 10.2 101470 77
2006-04-20 07:51 51°16.688 2°52.956 -999 324 10.1 101460 77
2006-04-20 07:52 51°16.883 2°52.8 -999 328 10.1 101470 77
2006-04-20 07:53 51°17.093 2°52.712 -999 337 10.1 101470 78
2006-04-20 07:54 51°17.311 2°52.676 -999 331 10.1 101470 78
2006-04-20 07:55 51°17.526 2°52.619 -999 335 10.1 101470 78
2006-04-20 07:56 51°17.743 2°52.588 -999 328 10.1 101480 78
2006-04-20 07:57 51°17.959 2°52.576 -999 333 10.1 101470 78
2006-04-20 07:58 51°18.171 2°52.642 -999 339 10 101470 78
2006-04-20 07:59 51°18.347 2°52.823 -999 37 10.1 101480 77
2006-04-20 08:00 51°18.471 2°53.093 -999 48 10 101470 78
2006-04-20 08:01 51°18.548 2°53.4 -999 43 9.9 101470 78
2006-04-20 08:02 51°18.639 2°53.699 -999 50 9.9 101470 79
2006-04-20 08:03 51°18.73 2°53.998 -999 44 9.8 101470 80
2006-04-20 08:04 51°18.818 2°54.3 -999 45 9.8 101470 81
2006-04-20 08:05 51°18.909 2°54.599 -999 41 9.8 101470 82
2006-04-20 08:06 51°18.999 2°54.897 -999 39 9.7 101470 82
2006-04-20 08:07 51°19.089 2°55.193 -999 50 9.7 101470 83
2006-04-20 08:08 51°19.176 2°55.493 -999 48 9.7 101470 83
2006-04-20 08:09 51°19.263 2°55.792 -999 51 9.7 101470 83
2006-04-20 08:10 51°19.352 2°56.09 -999 49 9.7 101470 83
2006-04-20 08:11 51°19.438 2°56.388 -999 57 9.8 101480 82
2006-04-20 08:12 51°19.529 2°56.682 -999 48 9.8 101480 82
2006-04-20 08:13 51°19.62 2°56.975 -999 52 9.8 101480 82
2006-04-20 08:14 51°19.707 2°57.27 -999 48 9.9 101470 82
2006-04-20 08:15 51°19.797 2°57.56 -999 56 9.9 101480 82
2006-04-20 08:16 51°19.882 2°57.855 -999 50 9.9 101480 82
2006-04-20 08:17 51°19.97 2°58.146 -999 49 9.9 101480 82
2006-04-20 08:18 51°20.055 2°58.441 -999 49 9.9 101480 83
2006-04-20 08:19 51°20.146 2°58.733 -999 49 9.9 101480 83
2006-04-20 08:20 51°20.236 2°59.024 -999 41 9.9 101480 83
2006-04-20 08:21 51°20.326 2°59.316 -999 46 9.9 101480 82
2006-04-20 08:22 51°20.416 2°59.612 -999 45 10 101480 82
2006-04-20 08:23 51°20.51 2°59.906 -999 44 10 101490 82
2006-04-20 08:24 51°20.607 3°0.198 -999 38 10 101480 82
2006-04-20 08:25 51°20.702 3°0.489 -999 36 10.1 101490 81
2006-04-20 08:26 51°20.796 3°0.781 -999 30 10.1 101490 82
2006-04-20 08:27 51°20.906 3°1.061 -999 27 10.2 101490 82
2006-04-20 08:28 51°21.004 3°1.345 -999 35 10.2 101490 82
2006-04-20 08:29 51°21.114 3°1.616 -999 35 10.2 101490 82
2006-04-20 08:30 51°21.233 3°1.879 -999 21 10.3 101500 81
2006-04-20 08:31 51°21.351 3°2.143 -999 34 10.3 101490 81
2006-04-20 08:32 51°21.465 3°2.412 -999 29 10.4 101490 80
2006-04-20 08:33 51°21.57 3°2.689 -999 40 10.4 101490 80
2006-04-20 08:34 51°21.612 3°3 -999 41 10.3 101490 80
2006-04-20 08:35 51°21.685 3°3.297 -999 40 10.3 101490 81
2006-04-20 08:36 51°21.752 3°3.599 -999 35 10.3 101480 82
2006-04-20 08:37 51°21.811 3°3.906 -999 40 10.3 101490 82
2006-04-20 08:38 51°21.872 3°4.212 -999 39 10.2 101490 82
2006-04-20 08:39 51°21.928 3°4.521 -999 48 10.2 101490 83
2006-04-20 08:40 51°21.981 3°4.83 -999 42 10.2 101480 82
2006-04-20 08:41 51°22.03 3°5.141 -999 44 10.2 101490 82
2006-04-20 08:42 51°22.08 3°5.449 -999 46 10.2 101490 82
2006-04-20 08:43 51°22.134 3°5.757 -999 47 10.3 101490 82
2006-04-20 08:44 51°22.179 3°6.064 -999 45 10.3 101490 82
2006-04-20 08:45 51°22.221 3°6.372 -999 47 10.3 101490 81
2006-04-20 08:46 51°22.26 3°6.678 -999 44 10.4 101490 81
2006-04-20 08:47 51°22.299 3°6.983 -999 40 10.4 101490 81
2006-04-20 08:48 51°22.342 3°7.289 -999 36 10.4 101490 81
2006-04-20 08:49 51°22.38 3°7.595 -999 29 10.4 101500 82
2006-04-20 08:50 51°22.423 3°7.901 -999 36 10.4 101490 82
2006-04-20 08:51 51°22.467 3°8.207 -999 34 10.5 101490 82
2006-04-20 08:52 51°22.507 3°8.492 -999 39 10.5 101500 82
2006-04-20 08:53 51°22.524 3°8.672 -999 86 10.5 101500 82
2006-04-20 08:54 51°22.554 3°8.81 -999 88 10.5 101500 82
2006-04-20 08:55 51°22.591 3°8.932 -999 116 10.6 101500 82
2006-04-20 08:56 51°22.607 3°9.032 -999 101 10.7 101490 81
2006-04-20 08:57 51°22.618 3°9.115 -999 134 10.8 101500 81
2006-04-20 08:58 51°22.621 3°9.129 -999 118 10.8 101500 80
2006-04-20 08:59 51°22.617 3°9.126 -999 117 10.8 101500 80
2006-04-20 09:00 51°22.612 3°9.119 -999 113 10.8 101490 80
2006-04-20 09:01 51°22.608 3°9.109 -999 111 10.8 101500 79
2006-04-20 09:02 51°22.604 3°9.097 -999 110 10.8 101490 79
2006-04-20 09:03 51°22.6 3°9.083 -999 111 10.8 101490 79
2006-04-20 09:04 51°22.583 3°9.085 -999 54 10.9 101500 78
2006-04-20 09:05 51°22.499 3°9.091 -999 27 10.8 101490 78
2006-04-20 09:06 51°22.371 3°9.029 -999 13 10.9 101490 78
2006-04-20 09:07 51°22.237 3°8.938 -999 18 11 101480 78
2006-04-20 09:08 51°22.142 3°8.847 -999 1 11 101490 77
2006-04-20 09:09 51°22.088 3°8.723 -999 350 11.1 101490 76
2006-04-20 09:10 51°22.053 3°8.592 -999 336 11.3 101490 75
2006-04-20 09:11 51°22.033 3°8.455 -999 328 11.4 101480 74
2006-04-20 09:12 51°22.014 3°8.321 -999 331 11.4 101480 74
2006-04-20 09:13 51°21.992 3°8.189 -999 333 11.4 101490 75
2006-04-20 09:14 51°21.972 3°8.07 -999 332 11.3 101480 75
2006-04-20 09:15 51°21.957 3°7.972 -999 334 11.3 101490 75
2006-04-20 09:16 51°21.946 3°7.883 -999 332 11.3 101490 75
2006-04-20 09:17 51°21.937 3°7.8 -999 331 11.3 101490 75
2006-04-20 09:18 51°21.93 3°7.721 -999 324 11.3 101490 75
2006-04-20 09:19 51°21.924 3°7.644 -999 329 11.3 101480 75
2006-04-20 09:20 51°21.918 3°7.571 -999 337 11.4 101480 74
2006-04-20 09:21 51°21.91 3°7.499 -999 340 11.4 101480 74
2006-04-20 09:22 51°21.902 3°7.429 -999 343 11.5 101480 73
2006-04-20 09:23 51°21.893 3°7.358 -999 346 11.6 101480 73
2006-04-20 09:24 51°21.884 3°7.287 -999 347 11.7 101480 72
2006-04-20 09:25 51°21.874 3°7.216 -999 341 11.7 101480 72
2006-04-20 09:26 51°21.866 3°7.146 -999 336 11.8 101480 72
2006-04-20 09:27 51°21.857 3°7.074 -999 336 11.8 101480 72
2006-04-20 09:28 51°21.849 3°7.003 -999 339 11.8 101480 72
2006-04-20 09:29 51°21.84 3°6.932 -999 337 11.8 101480 72
2006-04-20 09:30 51°21.83 3°6.861 -999 337 11.8 101480 72
2006-04-20 09:31 51°21.822 3°6.787 -999 322 11.8 101480 72
2006-04-20 09:32 51°21.827 3°6.692 -999 297 11.8 101480 72
2006-04-20 09:33 51°21.858 3°6.598 -999 276 11.8 101480 73
2006-04-20 09:34 51°21.904 3°6.52 -999 257 11.8 101480 73
2006-04-20 09:35 51°21.958 3°6.493 -999 171 11.8 101490 73
2006-04-20 09:36 51°21.991 3°6.511 -999 144 11.9 101480 73
2006-04-20 09:37 51°21.984 3°6.548 -999 67 11.8 101480 73
2006-04-20 09:38 51°21.881 3°6.601 -999 35 11.6 101470 73
2006-04-20 09:39 51°21.68 3°6.596 -999 23 11.5 101460 74
2006-04-20 09:40 51°21.467 3°6.501 -999 23 11.7 101460 73
2006-04-20 09:41 51°21.253 3°6.396 -999 19 11.8 101470 72
2006-04-20 09:42 51°21.038 3°6.293 -999 21 11.9 101460 72
2006-04-20 09:43 51°20.831 3°6.176 -999 16 11.8 101470 72
2006-04-20 09:44 51°20.629 3°6.036 -999 16 11.8 101470 72
2006-04-20 09:45 51°20.428 3°5.895 -999 15 11.9 101460 72
2006-04-20 09:46 51°20.223 3°5.766 -999 11 11.9 101470 72
2006-04-20 09:47 51°20.012 3°5.671 -999 15 11.9 101470 71
2006-04-20 09:48 51°19.837 3°5.45 -999 5 12.1 101460 70
2006-04-20 09:49 51°19.715 3°5.197 -999 349 12.1 101460 70
2006-04-20 09:50 51°19.682 3°5.002 -999 333 12.3 101460 69
2006-04-20 09:51 51°19.667 3°4.941 -999 342 12.4 101470 68
2006-04-20 09:52 51°19.668 3°4.931 -999 349 12.5 101470 68
2006-04-20 09:53 51°19.668 3°4.916 -999 347 12.7 101470 67
2006-04-20 09:54 51°19.667 3°4.901 -999 351 12.8 101460 66
2006-04-20 09:55 51°19.663 3°4.886 -999 342 12.9 101460 66
2006-04-20 09:56 51°19.654 3°4.857 -999 355 12.9 101460 66
2006-04-20 09:57 51°19.597 3°4.772 -999 25 12.9 101460 65
2006-04-20 09:58 51°19.5 3°4.724 -999 39 12.8 101450 65
2006-04-20 09:59 51°19.395 3°4.722 -999 44 12.6 101450 66
2006-04-20 10:00 51°19.3 3°4.723 -999 50 12.6 101450 64
2006-04-20 10:01 51°19.216 3°4.699 -999 12 12.7 101450 63
2006-04-20 10:02 51°19.15 3°4.591 -999 357 13 101450 62
2006-04-20 10:03 51°19.086 3°4.47 -999 355 13.2 101440 60
2006-04-20 10:04 51°19.031 3°4.367 -999 345 13.4 101450 59
2006-04-20 10:05 51°18.992 3°4.285 -999 344 13.5 101440 60
2006-04-20 10:06 51°18.959 3°4.217 -999 358 13.6 101450 60
2006-04-20 10:07 51°18.93 3°4.155 -999 351 13.7 101450 61
2006-04-20 10:08 51°18.901 3°4.096 -999 352 13.8 101450 59
2006-04-20 10:09 51°18.875 3°4.039 -999 357 13.8 101450 59
2006-04-20 10:10 51°18.849 3°3.981 -999 348 13.8 101450 58
2006-04-20 10:11 51°18.824 3°3.921 -999 357 13.8 101450 58
2006-04-20 10:12 51°18.795 3°3.855 -999 355 13.9 101450 56
2006-04-20 10:13 51°18.764 3°3.785 -999 350 13.9 101440 57
2006-04-20 10:14 51°18.732 3°3.714 -999 358 13.9 101450 56
2006-04-20 10:15 51°18.7 3°3.644 -999 340 14 101450 58
2006-04-20 10:16 51°18.669 3°3.572 -999 335 13.9 101440 56
2006-04-20 10:17 51°18.639 3°3.501 -999 335 14 101440 56
2006-04-20 10:18 51°18.61 3°3.429 -999 335 13.9 101430 55
2006-04-20 10:19 51°18.586 3°3.357 -999 333 13.9 101430 55
2006-04-20 10:20 51°18.564 3°3.286 -999 333 13.9 101430 55
2006-04-20 10:21 51°18.541 3°3.216 -999 330 13.9 101430 54
2006-04-20 10:22 51°18.517 3°3.146 -999 345 14 101440 54
2006-04-20 10:23 51°18.489 3°3.078 -999 344 14 101440 55
2006-04-20 10:24 51°18.461 3°3.01 -999 356 14 101440 56
2006-04-20 10:25 51°18.433 3°2.944 -999 4 13.9 101440 57
2006-04-20 10:26 51°18.403 3°2.88 -999 3 13.7 101440 56
2006-04-20 10:27 51°18.374 3°2.818 -999 2 13.8 101440 55
2006-04-20 10:28 51°18.345 3°2.752 -999 4 13.9 101450 55
2006-04-20 10:29 51°18.321 3°2.673 -999 343 13.9 101440 56
2006-04-20 10:30 51°18.304 3°2.574 -999 332 13.9 101430 58
2006-04-20 10:31 51°18.299 3°2.469 -999 310 13.7 101450 60
2006-04-20 10:32 51°18.31 3°2.368 -999 278 13.6 101440 59
2006-04-20 10:33 51°18.341 3°2.282 -999 287 13.6 101450 58
2006-04-20 10:34 51°18.353 3°2.201 -999 310 13.7 101440 58
2006-04-20 10:35 51°18.338 3°2.103 -999 338 13.7 101440 57
2006-04-20 10:36 51°18.297 3°1.989 -999 348 13.8 101430 56
2006-04-20 10:37 51°18.206 3°1.767 -999 356 13.9 101430 56
2006-04-20 10:38 51°18.093 3°1.485 -999 354 13.8 101420 58
2006-04-20 10:39 51°17.979 3°1.176 -999 357 13.7 101420 59
2006-04-20 10:40 51°17.843 3°0.884 -999 4 13.7 101420 59
2006-04-20 10:41 51°17.733 3°0.562 -999 349 13.7 101420 59
2006-04-20 10:42 51°17.622 3°0.237 -999 354 13.7 101420 60
2006-04-20 10:43 51°17.503 2°59.92 -999 346 13.7 101420 59
2006-04-20 10:44 51°17.392 2°59.591 -999 3 13.8 101410 57
2006-04-20 10:45 51°17.272 2°59.272 -999 356 13.7 101420 58
2006-04-20 10:46 51°17.156 2°58.947 -999 357 13.7 101410 58
2006-04-20 10:47 51°17.047 2°58.615 -999 350 13.6 101410 60
2006-04-20 10:48 51°16.926 2°58.292 -999 355 13.4 101420 60
2006-04-20 10:49 51°16.81 2°57.963 -999 352 13.5 101400 58
2006-04-20 10:50 51°16.684 2°57.648 -999 7 13.5 101420 60
2006-04-20 10:51 51°16.56 2°57.329 -999 3 13.4 101410 60
2006-04-20 10:52 51°16.46 2°56.989 -999 360 13.5 101380 60
2006-04-20 10:53 51°16.327 2°56.679 -999 358 13.6 101400 58
2006-04-20 10:54 51°16.213 2°56.35 -999 356 13.7 101400 59
2006-04-20 10:55 51°16.069 2°56.055 -999 359 13.6 101420 59
2006-04-20 10:56 51°15.944 2°55.739 -999 360 13.6 101400 60
2006-04-20 10:57 51°15.796 2°55.451 -999 354 13.5 101410 61
2006-04-20 10:58 51°15.651 2°55.165 -999 6 13.6 101400 59
2006-04-20 10:59 51°15.453 2°54.978 -999 21 13.7 101410 58
2006-04-20 11:00 51°15.244 2°54.883 -999 25 13.7 101410 61
2006-04-20 11:01 51°15.03 2°54.84 -999 19 13.7 101400 56
2006-04-20 11:02 51°14.81 2°54.798 -999 32 14 101400 55
2006-04-20 11:03 51°14.598 2°54.862 -999 42 14.1 101400 56
2006-04-20 11:04 51°14.416 2°55.034 -999 45 14.1 101390 55
2006-04-20 11:05 51°14.283 2°55.246 -999 67 14.3 101420 54
2006-04-20 11:06 51°14.174 2°55.373 -999 75 14.5 101420 53
2006-04-20 11:07 51°14.079 2°55.444 -999 29 14.7 101410 52
2006-04-20 11:08 51°13.991 2°55.509 -999 12 14.9 101410 52
2006-04-20 11:09 51°13.914 2°55.568 -999 10 15 101410 53
2006-04-20 11:10 51°13.848 2°55.617 -999 21 15.1 101410 52
2006-04-20 11:11 51°13.795 2°55.666 -999 24 15.2 101400 51
2006-04-20 11:12 51°13.752 2°55.729 -999 68 15.2 101400 51
2006-04-20 11:13 51°13.711 2°55.805 -999 71 15.1 101410 51
2006-04-20 11:14 51°13.671 2°55.889 -999 71 15.1 101410 51
2006-04-20 11:15 51°13.635 2°55.97 -999 37 15.2 101410 50
2006-04-20 11:16 51°13.61 2°56.04 -999 81 15.3 101410 50
2006-04-20 11:17 51°13.6 2°56.092 -999 112 15.4 101410 50
2006-04-20 11:18 51°13.6 2°56.092 -999 106 15.5 101410 49
2006-04-20 11:19 51°13.599 2°56.097 -999 123 15.6 101420 49
2006-04-20 11:20 51°13.6 2°56.1 -999 133 15.6 101420 48
2006-04-20 11:21 51°13.601 2°56.1 -999 133 15.6 101400 48
2006-04-20 11:22 51°13.602 2°56.1 -999 128 15.5 101400 49